Flag for Cuba Weather past 2 weeks in Holguín, Cuba

Now
81 °F

Broken clouds.


Feels Like: 83 °F
Forecast: 69 / 76 °F
Wind: 15 mph from Northeast

Location: Holguin Civ / Mil

Current Time: Mar 29, 2015 at 3:58:08 PM

Latest Report: Mar 29, 2015 at 2:51 PM


Visibility: N/A

Pressure: 30.09 "Hg

Humidity: 62%

Dew point: 66 °F

Location of HolguínLocation

Historic Weather in Holguín — Graph

°F

Holguín temperature yesterday

Maximum temperature yesterday: 90 °F (at 12:50 PM)
Minimum temperature yesterday: 68 °F (at 6:51 AM)
Average temperature yesterday: 78 °F

Past Weeks' High & Low Weather Summary

 TemperatureHumidityPressure
High95 °F (Mar 25, 3:50 PM)94% (Mar 16, 3:50 AM)30.15 "Hg (Mar 16, 3:50 AM)
Low63 °F (Mar 22, 6:50 AM)23% (Mar 25, 3:50 PM)29.89 "Hg (Mar 18, 3:50 PM)
Average78 °F65%30.02 "Hg
* Reported Mar 14 1:51 PM — Mar 29 1:53 PM, Holguín, Weather by CustomWeather, © 2015

Note: Actual official high and low records may vary slightly from our data, if they occured in-between our weather recording intervals... More about our weather records

Advertising

Holguín weather history for previous 24 hours

 ConditionsComfort  
Time TempWeatherWind HumidityBarometerVisibility
1:53 PM
Sun, Mar 29
79 °FBroken clouds.9 mph74%30.09 "HgN/A
12:51 PM81 °FPartly sunny.9 mph66%30.12 "HgN/A
11:52 AM77 °FLight rain. Partly sunny.6 mph79%30.15 "Hg6 mi
10:51 AM79 °FPartly sunny.8 mph70%30.15 "HgN/A
9:50 AM77 °FBroken clouds.3 mph74%30.15 "Hg6 mi
8:51 AM73 °FBroken clouds.5 mph83%30.15 "Hg6 mi
7:50 AM72 °FPassing clouds.3 mph83%30.12 "Hg6 mi
6:52 AM72 °FPassing clouds.13 mph83%30.12 "Hg5 mi
5:51 AM72 °FFog.9 mph83%30.09 "Hg5 mi
4:51 AM72 °FFog.9 mph83%N/A4 mi
3:50 AM72 °FFog.5 mph83%N/A4 mi
2:50 AM72 °FFog.2 mph83%30.09 "Hg4 mi
2:02 AM72 °FFog.6 mph88%30.09 "Hg4 mi
12:55 AM73 °FMild.N/A89%30.12 "HgN/A
11:50 PM
Sat, Mar 28
73 °FPartly cloudy.5 mph83%N/A6 mi
10:50 PM73 °FPartly cloudy.2 mph89%30.09 "Hg6 mi
9:50 PM73 °FPartly cloudy.2 mph89%30.09 "Hg6 mi
8:50 PM73 °FPartly cloudy.2 mph89%30.09 "Hg5 mi
7:52 PM73 °FLight rain. Mostly cloudy.2 mph89%30.07 "Hg4 mi
6:50 PM77 °FLight rain. Broken clouds.2 mph79%30.07 "Hg4 mi
5:52 PM81 °FBroken clouds.2 mph58%30.04 "Hg6 mi
4:50 PM84 °FPartly sunny.2 mph48%30.01 "Hg6 mi
3:50 PM86 °FBroken clouds.2 mph49%29.98 "Hg6 mi
Weather by CustomWeather, © 2015

See weather overviewHow to use our weather pages